Tracking 31030 objects as of 17-Jul-2025
HD Live streaming from Space Station
objects crossing your sky now

COSMOS 2148

Track COSMOS 2148 now!
10-day predictions
COSMOS 2148 is classified as:


NORAD ID: 21304
Int'l Code: 1991-033F
Perigee: 1,387.1 km
Apogee: 1,423.9 km
Inclination: 82.6 °
Period: 113.7 minutes
Semi major axis: 7776 km
RCS: 1.1839 m2 (large)
Launch date: May 16, 1991
Source: Commonwealth of Independent States (former USSR) (CIS)
Launch site: PLESETSK MISSILE AND SPACE COMPLEX (PKMTR)
Your satellite tracking list
Your tracking list is empty




NASA's NSSDC Master Catalog

Two Line Element Set (TLE):
1 21304U 91033F   25197.87112728  .00000034  00000-0  12403-3 0  9996
2 21304  82.5741 125.6293 0023710   1.6757  60.6573 12.65980812578937
Source of the keplerian elements: AFSPC